This is the latest recevied weather packets stored in our database for station/object DO7CRZ-11. If no packets are shown the sender has not sent any weather packets the latest 10 day(s).
| Time | Temp. | Humidity | Pressure | Rain* | Wind** | Luminosity | Snow |
|---|---|---|---|---|---|---|---|
| 1777922535 | 17.22° C | 59% | 1013.1 hPa | 0 mm | - | 0 W/m² | - |
| 1777921330 | 17.78° C | 57% | 1013.2 hPa | 0 mm | - | 0 W/m² | - |
| 1777920733 | 18.33° C | 56% | 1013 hPa | 0 mm | - | 0 W/m² | - |
| 1777920126 | 18.89° C | 55% | 1012.9 hPa | 0 mm | - | 1 W/m² | - |
| 1777919532 | 19.44° C | 54% | 1012.9 hPa | 0 mm | - | 2 W/m² | - |
| 1777918938 | 20° C | 52% | 1012.9 hPa | 0 mm | - | 5 W/m² | - |
| 1777918339 | 20.56° C | 51% | 1012.8 hPa | 0 mm | - | 9 W/m² | - |
| 1777917730 | 20.56° C | 51% | 1012.8 hPa | 0 mm | - | 18 W/m² | - |
| 1777917133 | 21.11° C | 50% | 1012.7 hPa | 0 mm | - | 28 W/m² | - |
| 1777916527 | 21.67° C | 49% | 1012.7 hPa | 0 mm | - | 37 W/m² | - |
| 1777915936 | 22.22° C | 47% | 1012.6 hPa | 0 mm | - | 45 W/m² | - |
| 1777915334 | 22.78° C | 47% | 1012.5 hPa | 0 mm | - | 46 W/m² | - |
| 1777914131 | 22.78° C | 45% | 1012.6 hPa | 0 mm | - | 57 W/m² | - |
| 1777913534 | 23.33° C | 44% | 1012.6 hPa | 0 mm | - | 73 W/m² | - |
| 1777912928 | 23.33° C | 44% | 1012.5 hPa | 0 mm | - | 86 W/m² | - |
| 1777912331 | 23.33° C | 43% | 1012.6 hPa | 0 mm | - | 83 W/m² | - |
| 1777911736 | 23.89° C | 42% | 1012.5 hPa | 0 mm | - | 106 W/m² | - |
| 1777911129 | 23.89° C | 42% | 1012.6 hPa | 0 mm | - | 135 W/m² | - |
| 1777909931 | 23.89° C | 42% | 1012.6 hPa | 0 mm | - | 133 W/m² | - |
| 1777908736 | 24.44° C | 39% | 1012.8 hPa | 0 mm | - | 132 W/m² | - |
| 1777908129 | 25° C | 37% | 1012.7 hPa | 0 mm | - | 153 W/m² | - |
| 1777906936 | 25° C | 38% | 1012.8 hPa | 0 mm | - | 284 W/m² | - |
| 1777906330 | 25° C | 37% | 1012.8 hPa | 0 mm | - | 256 W/m² | - |
| 1777905733 | 25° C | 37% | 1012.9 hPa | 0 mm | - | 198 W/m² | - |
| 1777905134 | 25.56° C | 36% | 1012.9 hPa | 0 mm | - | 189 W/m² | - |
* Rain latest hour (hover to see other rain measurements)
** Current wind speed in m/s (hover to see current wind gust speed)